Regional Weather Roundup
Issued by NWS

Home | Current Version | Previous Version | Graphics & Text | Print | Product List | Glossary On
Versions: 1 2 3 4 5 6 7 8 9 10 11 12 13 14 15 16 17 18 19 20 21 22 23 24 25 26 27 28 29 30 31 32 33 34 35 36 37 38 39 40 41 42 43 44 45 46 47 48 49 50
000
ASUS43 KMPX 070010
RWRMN
WEATHER ROUNDUP FOR MINNESOTA
NATIONAL WEATHER SERVICE TWIN CITIES/CHANHASSEN MN
700 PM CDT WED MAY 06 2015


NOTE: "FAIR" INDICATES FEW OR NO CLOUDS BELOW 12,000 FEET WITH NO
SIGNIFICANT WEATHER AND/OR OBSTRUCTIONS TO VISIBILITY. N/A MEANS
CURRENT SKY AND/OR WEATHER CONDITIONS ARE NOT AVAILABLE.

MNZ060>063-068>070-070100-
   Twin Cities Metro

CITY           SKY/WX    TMP DP  RH WIND       PRES   REMARKS
TWIN CITIES    CLOUDY    71  61  70 SE21      29.86F
6HR MIN TEMP:  65; 6HR MAX TEMP:  77; 6HR PCP: TRACE;

ST PAUL        CLOUDY    68  61  78 SE14      29.88F
CRYSTAL        CLOUDY    72  60  66 SE17G29   29.84F
BLAINE         PTSUNNY   72  61  68 SE17G29   29.86F
LAKEVILLE      CLOUDY    70  61  73 SE16      29.86F
EDEN PRAIRIE   CLOUDY    72  60  66 SE22G31   29.83F
6HR MIN TEMP:  67; 6HR MAX TEMP:  77; 6HR PCP: TRACE;

SOUTH ST PAUL  CLOUDY    68  61  78 SE8       29.88F
LAKE ELMO      FAIR      64  61  88 E10G16    29.90F
$$
MNZ001>005-007-008-013>017-022>024-027-028-070100-
   Northwest Minnesota

CITY           SKY/WX    TMP DP  RH WIND       PRES   REMARKS
BEMIDJI        CLOUDY    64  54  68 E13       29.80F
HALLOCK        LGT RAIN  64  61  88 E10       29.75F
ROSEAU         LGT RAIN  63  57  82 E9        29.81F
WARROAD        LGT RAIN  63  59  88 SE7       29.84F
THIEF RVR FALL CLOUDY    63  57  82 E12       29.77F
CROOKSTON      DRIZZLE   61  61 100 E12       29.74F
FOSSTON        DRIZZLE   61  55  82 E9        29.77F
DETROIT LAKES  CLOUDY    64  59  82 SE15      29.75F
MOORHEAD       CLOUDY    64  59  82 SE15G22   29.70F
PARK RAPIDS    CLOUDY    67  56  67 SE17G24   29.79F
MAHNOMEN       CLOUDY    66  56  70 E14G21    29.73F
$$
MNZ006-009>011-018-025>026-070100-
   North Central Minnesota

CITY           SKY/WX    TMP DP  RH WIND       PRES   REMARKS
BAUDETTE       LGT RAIN  62  58  86 SE10      29.85F
FLAG ISLAND    DRIZZLE   59  55  88 E7        29.83F
INTL FALLS     CLOUDY    65  54  67 SE12      29.88F
6HR MIN TEMP:  61; 6HR MAX TEMP:  69; 6HR PCP: TRACE;

WASKISH        CLOUDY    64  55  72 E9        29.83F
BIG FORK       CLOUDY    64  52  63 E7G16     29.87F
LONGVILLE      LGT RAIN  66  54  63 E6        29.83F
GRAND RAPIDS   CLOUDY    64  52  63 SE10      29.87F
CRANE LAKE     CLOUDY    64  54  68 SE3       29.93F
ORR            CLOUDY    64  52  63 SE7       29.89F
COOK           CLOUDY    63  54  72 SE7       29.92F
WALKER         LGT RAIN  63  55  76 E6        29.81S
$$
MNZ012-019>021-037-070100-
   Northeast Minnesota

CITY           SKY/WX    TMP DP  RH WIND       PRES   REMARKS
DULUTH         CLOUDY    57  47  69 E18       29.93F
6HR MIN TEMP:  55; 6HR MAX TEMP:  62;

ELY            CLOUDY    61  52  72 SE12      29.96F
HIBBING        CLOUDY    62  52  69 E13       29.90F
EVELETH        CLOUDY    59  52  77 E8        29.94F
DULUTH HARBOR    N/A     45  37  76 E12       29.96F
TWO HARBORS    CLOUDY    59  43  55 NE10G16   29.95F
SILVER BAY     PTSUNNY   57  30  35 NE10      29.98F
GRAND MARAIS     N/A     46  33  60 NE8       30.01F
G MARAIS ARPRT CLOUDY    59  41  51 E7        30.03F
$$
MNZ029>031-032-039>041-046>048-054>057-064-070100-
   West Central Minnesota

CITY           SKY/WX    TMP DP  RH WIND       PRES   REMARKS
FERGUS FALLS   CLOUDY    64  61  88 SE15      29.72F
WHEATON        CLOUDY    64  61  88 SE12      29.70F
MORRIS         PTSUNNY   70  63  78 S13       29.70F
ALEXANDRIA     CLOUDY    65  61  87 SE14      29.77F
ELBOW LAKE     DRIZZLE   65  62  90 SE13G18   29.72F
WADENA         CLOUDY    66  57  72 SE18G26   29.77F
GLENWOOD       CLOUDY    66  63  88 SE13G20   29.77F
APPLETON       PTSUNNY   72  61  68 S20G26    29.70F
BENSON         PTSUNNY   72  55  56 SW20G31   29.73S HAZE
ORTONVILLE     PTSUNNY   72  61  68 SE8       29.68F
MADISON        MOSUNNY   70  61  73 S21G28    29.70S
WILLMAR        FAIR      73  63  68 SE16G24   29.76F
$$
MNZ033>034-036-042>043-049>051-058-059-070100-
   Central Minnesota

CITY           SKY/WX    TMP DP  RH WIND       PRES   REMARKS
ST CLOUD       CLOUDY    66  63  90 SE9       29.82F
6HR MIN TEMP:  64; 6HR MAX TEMP:  75; 6HR PCP:  0.39;

SAUK CENTRE    MOCLDY    65  62  91 SE15G22   29.78F
PAYNESVILLE    PTSUNNY   67  62  85 E12G18    29.79F
AITKIN         MIX PCPN  66  55  68 E6        29.83S
PINE RIVER     LGT RAIN  64  57  77 SE10G17   29.86S
BRAINERD       RAIN      63  59  87 S8        29.86R FOG
STAPLES        CLOUDY    63  61  94 SE7       29.81F
LONG PRAIRIE   PTSUNNY   63  61  94 E12G18    29.79F
LITTLE FALLS   CLOUDY    63  59  88 E8        29.82F
LITCHFIELD     PTSUNNY   72  66  83 SE10G18   29.80F
BUFFALO        CLOUDY    69  60  74 SE13G18   29.84S
MAPLE LAKE     CLOUDY    71  64  79 SE12G20   29.83F
$$
MNZ037-044-045-052-053-070100-
   East Central Minnesota

CITY           SKY/WX    TMP DP  RH WIND       PRES   REMARKS
PRINCETON      CLOUDY    70  63  78 SE10      29.85R
MORA           CLOUDY    70  54  56 SE17G28   29.87F
CAMBRIDGE      CLOUDY    73  57  56 SE16G29   29.84S
RUSH CITY      CLOUDY    72  56  55 SE18G31   29.88F
MOOSE LAKE     CLOUDY    55  45  67 E7G16     29.89S
HINCKLEY       CLOUDY    73  55  53 SE10G20   29.88S
CLOQUET        CLOUDY    54  43  66 E9G17     29.92F
MCGREGOR       CLOUDY    63  52  67 E12       29.87F
$$
MNZ071>073-080-081-089-090-097-098-070100-
   Southwest Minnesota

CITY           SKY/WX    TMP DP  RH WIND       PRES   REMARKS
MONTEVIDEO     PTSUNNY   72  61  68 SW20G29   29.73S
GRANITE FALLS  PTSUNNY   69  59  70 S21G33    29.76S
CANBY          MOSUNNY   71  59  64 S21G30    29.72R
MARSHALL       MOSUNNY   70  55  60 S24G31    29.75R
REDWOOD FALLS  PTSUNNY   72  58  61 S23G31    29.77R
OLIVIA         PTSUNNY   72  57  60 S18G28    29.76F
PIPESTONE      PTSUNNY   66  59  77 S24       29.75S
WINDOM         CLOUDY    70  57  64 S13G21    29.80S
WORTHINGTON    CLOUDY    66  59  77 S15G22    29.79F
JACKSON        PTSUNNY   70  59  68 S13       29.82F
TRACY          PTSUNNY   69  58  69 S15G26    29.77S
SLAYTON        CLOUDY    66  61  82 S23G29    29.78S
$$
MNZ065>067-074>077-082>085-091>093-070100-
   South Central Minnesota

CITY           SKY/WX    TMP DP  RH WIND       PRES   REMARKS
MANKATO        MOSUNNY   75  55  50 S15G26    29.83S
NEW ULM        PTSUNNY   72  59  64 S14G20    29.79F
ST JAMES       CLOUDY    72  63  73 S10       29.81F
FAIRMONT       PTSUNNY   73  39  29 S18       29.81S
GLENCOE        PTSUNNY   72  65  78 SE10      29.81S
FARIBAULT      PTSUNNY   72  63  73 SE14G23   29.87S
OWATONNA       PTSUNNY   72  61  68 SE16G23   29.87S
WASECA         PTSUNNY   72  61  68 SE16G24   29.86F
ALBERT LEA     PTSUNNY   72  63  73 SE15      29.86F
$$
MNZ078>079-086>088-094>096-070100-
   Southeast Minnesota

CITY           SKY/WX    TMP DP  RH WIND       PRES   REMARKS
ROCHESTER      CLOUDY    68  60  75 S17G25    29.92F
6HR MIN TEMP:  63; 6HR MAX TEMP:  73; 6HR PCP:  0.20;

RED WING       CLOUDY    66  63  88 SE13      29.91F
STANTON        CLOUDY    71  61  69 SE15G23   29.86F
DODGE CENTER   LGT RAIN  70  63  78 S16       29.90F
WINONA         CLOUDY    63  61  94 SE6       29.95R
AUSTIN         CLOUDY    66  61  82 SE10G16   29.90S
PRESTON        CLOUDY    67  58  72 S17G28    29.94F
$$
ABBREVIATIONS USED IN REMARKS
   TC - TEMPERATURES IN CELSIUS
  WCI - WIND CHILL INDEX
   HX - HEAT INDEX
  VSB - VISIBILITY
$$


USA.gov is the U.S. government's official web portal to all federal, state and local government web resources and services.